Showing default

GAOFEN 8, 40701

Orbit data source: Space-Track

GAOFEN 8, 40701 is a payload satellite owned by PLA GAD (CN) in SSO that was launched on Fri, 26 Jun 2015 UTC via a CHANG ZHENG 4B launch vehicle from the Taiyaun Space Center, China (TSC). Payload-class satellites include a variety of spacecraft equipped with specific instruments for various scientific and technological missions. These include communications satellites like Starlink; space stations such as the ISS; scientific satellites like the Hubble; Earth observation satellites from companies like Planet Labs, Umbra, and HawkEye 360; GPS; miniature CubeSats for education and research; and military/defense satellites.

Loading next visibility...
Identifier
40701, 2015-030A
Orbit
SSO
Country
Flag of CNCN / PRC
Related business
Manufacturer
CAST
Mission
Operational Defense Imaging
Bus & Motor
YW-5?, Unknown motor
Mass
~2,400 kg wet, ~2,400 kg dry
Launch date (UTC)
2015-06-26 (10 years ago)
Launch vehicle
CHANG ZHENG 4B
Launch site
Taiyaun Space Center, China (TSC)
Object type
Payload
Rocket body
Debris
Shape & HBR
Box + 2 Pan, 4.0 m
Radar Cross Section
9.231 m², Large (>1 m²)

Expand to show TLE details & history
Last TLE update: 9 hours ago

TLE from 9 hours ago
0 GAOFEN 8
1 40701U 15030A   25261.00219557  .00011214  00000-0  33469-3 0  9993
2 40701  97.6944  75.2215 0012564  89.5835 270.6847 15.34733105569546
Epoch: 2025-09-18T00:03Z
TLE epoch observation values (Epoch: 2025-09-18T00:03:09.697Z)
Latitude
-0°
Longitude
77.26105°
Altitude
464.723 km
Speed
7.634 km/s
True Right ascension
05h 00m 53s
True Declination
0° 00' 00"
Sunlit
Object was in daylight at epoch
Visualization orbit readout
Latitude
Unknown
Longitude
Unknown
Altitude
Unknown
Speed
Unknown
Apparent Right ascension
Unknown
Apparent Declination
Unknown
Sunlit
N/A
Visualization observer readout
Local Sidereal Time
01:32:15
Azimuth
Unknown
Elevation
Unknown
Doppler factor
Unknown
Orbital elements
Apogee altitude
467.262 km
Perigee altitude
450.082 km
Semi-major axis
6,836.809 km
Eccentricity
0.00126
Inclination
97.6944°
RAAN
75.2215°
Arg. of periapsis
89.5835°
True anomaly
270.54073°
Mean anomaly
270.6847°
Eccentric anomaly
270.61272°
Mean motion
3.8394 °/min
Orbital period
93.76 mins
BSTAR
0.00033469
Loading maneuver chart data...
Computing Atmospheric mass density...
Loading historical data...
Loading historical data...
Loading historical data...
Loading historical data...
Loading historical data...
Loading historical data...
Loading historical data...
Other satellites on launch #30 in the year 2015 (2015-06-26 UTC)

Documentation

Showing up to 5 results
|